To NAV CANADA Home Page Login to a new session Search on AWWS site Feedback and Comments Disclaimer Vers la page française équivalente Tips FAQ What's new on the site To the Forecasts and Observations / NOTAM section To "File a Flight Plan" website Publications and other links Update of the User's profile FIC Telephone Numbers My Weather Data Folder Route Weather Data Regional Weather Data Local Weather Data To the Forecasts and Observations / NOTAM section
Request Generated 07/29/2015 at 21:58:51 UTC . Weather information available at that time is displayed.

METAR/TAF

AUPALUK/QC    

METAR CYLA 291900Z 12012KT 15SM SCT035 BKN085 21/13 A2980 RMK SC3AC2 LAST OBS/NXT 301200Z SLP092=
METAR CYLA 291800Z 12010KT 15SM SCT030 BKN085 22/16 A2981 RMK SC4AC2 SLP096=

CYLA - No TAF is issued for this station

Your time UTC time
Weather data provided by Environment Canada and NAV CANADA